Location: Poughquag
(41.6090°N, 73.6820°W)
Time: 01:04:59
(UTC-05:00)

Transit 2A - Visible Passes

Search period start: 29 November 2023 00:00
Search period end: 09 December 2023 00:00
Orbit: 600 x 953 km, 66.7° (Epoch: 28 November)

Date Brightness Start Highest point End Pass type
(mag) Time Alt. Az. Time Alt. Az. Time Alt. Az.
29 Nov 8.3 18:30:53 10° WNW 18:33:08 13° NW 18:35:19 10° NNW visible
30 Nov 8.1 17:54:33 10° W 17:57:57 18° NW 18:01:11 10° N visible
01 Dec 7.7 17:18:40 10° WSW 17:22:50 25° NW 17:26:44 10° N visible
04 Dec 8.2 17:19:26 10° WNW 17:21:34 13° NW 17:23:39 10° NNW visible
